FENGYUN 1C DEB

Satellite information

Favourite Embed

Satellite Type and Status

DEBRISIN ORBIT

Key statistics

Satellite FENGYUN 1C DEB at a glance.

Uptime

9616

Days in orbit

Revolutions

≈ 14.3

Per day

Orbit

SSO

Sun Synchronous Orbit

Inclination

99.4

Latest

Satellite identification and parameters

Extended collection of information and parameters for FENGYUN 1C DEB.

Object identification

Identified? True

Debris? True

Object name: FENGYUN 1C DEB

International designator: 1999-025BSC

Object number (NORAD): 31372

Object ID (CCSDS): 31372

Country: PEOPLES REPUBLIC OF CHINA (PRC)

Current information (Y/N): Y

RCS size: SMALL

Orbital parameters

Period: 101.017 minutes

Inclination: 99.3661 deg

SMA: 7184.961 km

Apoapsis: 832.388 km

Periapsis: 781.265 km

RAAN: 231.6132 deg

Eccentricy: 0.00355767

Argument of periapsis: 2.5331 deg

Mean anomaly: 357.602 deg

Mean motion: 14.25496303 rev/day

Mean motion (dot): 0.00006011 rev/day2

B* drag term: 0.0025459601 1/REarth

Two-line elements (TLE)

Creation date: Sept. 5, 2025, 4:46 a.m.

Reference frame: TEME

Reference center: EARTH

Epoch: Sept. 4, 2025, 9:50 a.m. UTC

TLE line 0: 0 FENGYUN 1C DEB

TLE line 1: 1 31372U 99025BSC 25247.41028763 .00006011 00000-0 25460-2 0 9999

TLE line 2: 2 31372 99.3661 231.6132 0035577 2.5331 357.6020 14.25496303944356

Live tracking on map

Real-time ground track for satellite FENGYUN 1C DEB.

In-orbit conjunctions

A list of the most updated potential collisions computed for object FENGYUN 1C DEB.

Target Orbit TCA Probability of collision Miss distance Type
SL-3 DEB LEO 2025-06-25 16:08:44 0.0001823088 155.0 (m) DEBRIS
FENGYUN 1C DEB SSO 2024-11-15 08:22:40 0.0001612545 394.0 (m) DEBRIS
SL-3 R/B LEO 2024-09-26 16:15:59 0.0002058628 266.0 (m) ROCKET BODY

Associated space launch

Chinese polar orbiting meteorological satellite

FENGYUN 1C DEB was lifted into orbit during the mission ‘Long March 4B | Feng Yun 1C’, on board a Long March 4B space rocket.

The launch took place on May 10, 1999, 1:33 a.m. from Launch Complex 7.

For more information about the launch, click the button.

Launch to space Long March 4B | Feng Yun 1C
Long March 4B | Feng Yun 1C

Agency: N/A

Status: Launch Successful

Launch date: May 10, 1999, 1:33 a.m. UTC

Rocket: Long March 4B

Launch pad: Launch Complex 7

Location: Taiyuan Satellite Launch Center, People's Republic of China

...

Latest news about this satellite

There are no fresh news available about this satellite. Check back as we update our databases every day.


Newsletter sign-up

Weekly statistics, charts and insights to help you stay on top of the space industry.